H1 CPF 2 NER 2021 5 12 9 132 01 glonass132 H2 1401201 9132 39620 2021 5 12 0 0 0 2021 5 15 23 45 0 900 1 1 0 0 0 1 H9 10 0 59346 0.00000 0 5523244.531 -14526566.015 20256078.116 10 0 59346 900.00000 0 7403307.700 -16005252.364 18466477.126 10 0 59346 1800.00000 0 8978261.384 -17469553.583 16319299.070 10 0 59346 2700.00000 0 10230435.322 -18856190.019 13856193.936 10 0 59346 3600.00000 0 11155364.625 -20101587.862 11124889.854 10 0 59346 4500.00000 0 11761711.348 -21144562.109 8178275.453 10 0 59346 5400.00000 0 12070643.608 -21928918.397 5073385.127 10 0 59346 6300.00000 0 12114699.252 -22405865.680 1870305.864 10 0 59346 7200.00000 0 11936182.337 -22536139.462 -1368974.084 10 0 59346 8100.00000 0 11585159.984 -22291747.018 -4581753.451 10 0 59346 9000.00000 0 11117143.570 -21657261.440 -7705821.033 10 0 59346 9900.00000 0 10590551.363 -20630609.798 -10680651.011 10 0 59346 10800.00000 0 10064058.866 -19223321.422 -13448568.129 10 0 59346 11700.00000 0 9593947.900 -17460224.509 -15955860.694 10 0 59346 12600.00000 0 9231565.735 -15378602.026 -18153820.170 10 0 59346 13500.00000 0 9021001.199 -13026840.172 -19999687.508 10 0 59346 14400.00000 0 8997075.940 -10462623.726 -21457487.923 10 0 59346 15300.00000 0 9183736.133 -7750751.497 -22498737.738 10 0 59346 16200.00000 0 9592913.490 -4960661.001 -23103009.215 10 0 59346 17100.00000 0 10223905.064 -2163763.746 -23258341.805 10 0 59346 18000.00000 0 11063299.796 569299.122 -22961490.883 10 0 59346 18900.00000 0 12085456.938 3171367.484 -22218008.098 10 0 59346 19800.00000 0 13253518.269 5581326.805 -21042150.428 10 0 59346 20700.00000 0 14520913.372 7746419.653 -19456618.393 10 0 59346 21600.00000 0 15833296.101 9624207.573 -17492127.143 10 0 59346 22500.00000 0 17130831.695 11184100.896 -15186817.579 10 0 59346 23400.00000 0 18350738.507 12408391.976 -12585518.100 10 0 59346 24300.00000 0 19429976.926 13292748.257 -9738870.839 10 0 59346 25200.00000 0 20307971.145 13846144.460 -6702339.373 10 0 59346 26100.00000 0 20929247.517 14090237.114 -3535117.784 10 0 59346 27000.00000 0 21245876.385 14058208.736 -298963.340 10 0 59346 27900.00000 0 21219612.505 13793131.824 2943023.131 10 0 59346 28800.00000 0 20823641.965 13345923.630 6127643.590 10 0 59346 29700.00000 0 20043860.570 12772980.323 9192849.846 10 0 59346 30600.00000 0 18879628.870 12133592.886 12078965.320 10 0 59346 31500.00000 0 17343971.717 11487256.198 14729856.187 10 0 59346 32400.00000 0 15463214.173 10890986.966 17094028.113 10 0 59346 33300.00000 0 13276069.688 10396765.229 19125626.736 10 0 59346 34200.00000 0 10832219.789 10049208.222 20785322.463 10 0 59346 35100.00000 0 8190445.735 9883574.857 22041063.045 10 0 59346 36000.00000 0 5416391.069 9924184.372 22868680.452 10 0 59346 36900.00000 0 2580049.025 10183314.721 23252341.702 10 0 59346 37800.00000 0 -246920.534 10660625.631 23184836.623 10 0 59346 38700.00000 0 -2993933.601 11343129.118 22667698.664 10 0 59346 39600.00000 0 -5594170.964 12205707.222 21711157.986 10 0 59346 40500.00000 0 -7987103.660 13212154.123 20333929.080 10 0 59346 41400.00000 0 -10120752.160 14316698.151 18562837.929 10 0 59346 42300.00000 0 -11953587.742 15465939.566 16432296.512 10 0 59346 43200.00000 0 -13455999.557 16601123.016 13983634.927 10 0 59346 44100.00000 0 -14611268.752 17660649.975 11264303.764 10 0 59346 45000.00000 0 -15416011.174 18582726.618 8326961.664 10 0 59346 45900.00000 0 -15880072.044 19308037.066 5228464.898 10 0 59346 46800.00000 0 -16025878.340 19782330.847 2028777.541 10 0 59346 47700.00000 0 -15887276.842 19958816.754 -1210177.543 10 0 59346 48600.00000 0 -15507906.944 19800263.198 -4425705.691 10 0 59346 49500.00000 0 -14939176.504 19280716.980 -7555543.373 10 0 59346 50400.00000 0 -14237925.372 18386768.036 -10539054.449 10 0 59346 51300.00000 0 -13463874.295 17118306.244 -13318397.359 10 0 59346 52200.00000 0 -12676965.856 15488737.232 -15839641.200 10 0 59346 53100.00000 0 -11934708.735 13524646.424 -18053809.386 10 0 59346 54000.00000 0 -11289636.671 11264923.250 -19917830.986 10 0 59346 54900.00000 0 -10786988.903 8759379.817 -21395381.366 10 0 59346 55800.00000 0 -10462709.960 6066919.376 -22457595.633 10 0 59346 56700.00000 0 -10341853.572 3253328.659 -23083640.702 10 0 59346 57600.00000 0 -10437458.883 388784.002 -23261134.267 10 0 59346 58500.00000 0 -10749947.622 -2454826.539 -22986401.632 10 0 59346 59400.00000 0 -11267069.184 -5206654.845 -22264564.343 10 0 59346 60300.00000 0 -11964397.661 -7799604.430 -21109457.603 10 0 59346 61200.00000 0 -12806361.535 -10172889.415 -19543376.746 10 0 59346 62100.00000 0 -13747764.065 -12274333.994 -17596656.346 10 0 59346 63000.00000 0 -14735731.305 -14062316.039 -15307088.927 10 0 59346 63900.00000 0 -15712006.051 -15507272.931 -12719193.754 10 0 59346 64800.00000 0 -16615490.779 -16592706.083 -9883349.354 10 0 59346 65700.00000 0 -17384931.437 -17315641.714 -6854806.643 10 0 59346 66600.00000 0 -17961627.409 -17686528.475 -3692602.392 10 0 59346 67500.00000 0 -18292051.409 -17728576.835 -458395.154 10 0 59346 68400.00000 0 -18330266.678 -17476569.083 2784752.300 10 0 59346 69300.00000 0 -18040037.403 -16975191.698 5973618.562 10 0 59346 70200.00000 0 -17396541.551 -16276962.483 9046071.144 10 0 59346 71100.00000 0 -16387612.498 -15439842.209 11942290.026 10 0 59346 72000.00000 0 -15014456.346 -14524633.886 14605941.798 10 0 59346 72900.00000 0 -13291814.481 -13592281.531 16985280.540 10 0 59346 73800.00000 0 -11247564.754 -12701184.068 19034153.508 10 0 59346 74700.00000 0 -8921778.698 -11904638.700 20712892.020 10 0 59346 75600.00000 0 -6365275.054 -11248521.841 21989070.918 10 0 59346 76500.00000 0 -3637730.880 -10769304.912 22838122.931 10 0 59346 77400.00000 0 -805429.709 -10492487.511 23243797.439 10 0 59346 78300.00000 0 2061259.209 -10431512.337 23198456.436 10 0 59346 79200.00000 0 4890566.015 -10587205.721 22703203.659 10 0 59346 80100.00000 0 7612058.823 -10947765.443 21767845.951 10 0 59346 81000.00000 0 10159323.437 -11489294.672 20410688.931 10 0 59346 81900.00000 0 12472474.739 -12176858.300 18658171.882 10 0 59346 82800.00000 0 14500397.515 -12966016.465 16544349.503 10 0 59346 83700.00000 0 16202625.929 -13804770.496 14110230.682 10 0 59346 84600.00000 0 17550785.816 -14635839.701 11402986.844 10 0 59346 85500.00000 0 18529541.798 -15399173.877 8475044.679 10 0 59347 0.00000 0 19137011.665 -16034596.795 5383080.109 10 0 59347 900.00000 0 19384631.981 -16484470.227 2186931.565 10 0 59347 1800.00000 0 19296482.025 -16696268.170 -1051546.247 10 0 59347 2700.00000 0 18908093.960 -16624952.241 -4269668.273 10 0 59347 3600.00000 0 18264800.242 -16235050.339 -7405121.722 10 0 59347 4500.00000 0 17419686.517 -15502349.879 -10397163.185 10 0 59347 5400.00000 0 16431235.763 -14415134.394 -13187787.769 10 0 59347 6300.00000 0 15360761.801 -12974910.222 -15722848.188 10 0 59347 7200.00000 0 14269739.304 -11196591.237 -17953102.452 10 0 59347 8100.00000 0 13217141.841 -9108131.760 -19835170.166 10 0 59347 9000.00000 0 12256899.376 -6749620.619 -21332378.986 10 0 59347 9900.00000 0 11435581.928 -4171871.726 -22415484.615 10 0 59347 10800.00000 0 10790406.888 -1434567.407 -23063250.064 10 0 59347 11700.00000 0 10347654.286 1395970.488 -23262872.317 10 0 59347 12600.00000 0 10121557.512 4249290.838 -23010247.223 10 0 59347 13500.00000 0 10113717.260 7053501.998 -22310066.423 10 0 59347 14400.00000 0 10313064.683 9738028.203 -21175743.138 10 0 59347 15300.00000 0 10696376.635 12236319.335 -19629166.904 10 0 59347 16200.00000 0 11229322.536 14488401.151 -17700290.705 10 0 59347 17100.00000 0 11867999.615 16443159.290 -15426557.294 10 0 59347 18000.00000 0 12560892.272 18060260.856 -12852175.001 10 0 59347 18900.00000 0 13251172.750 19311632.513 -10027256.564 10 0 59347 19800.00000 0 13879245.267 20182432.512 -7006837.674 10 0 59347 20700.00000 0 14385424.861 20671475.426 -3849794.885 10 0 59347 21600.00000 0 14712635.979 20791091.869 -617684.869 10 0 59347 22500.00000 0 14809014.726 20566429.701 2626471.014 10 0 59347 23400.00000 0 14630302.656 20034227.323 5819431.397 10 0 59347 24300.00000 0 14141928.980 19241112.430 8898982.878 10 0 59347 25200.00000 0 13320691.580 18241500.021 11805165.231 10 0 59347 26100.00000 0 12155964.728 17095180.497 14481448.490 10 0 59347 27000.00000 0 10650381.955 15864701.677 16875837.906 10 0 59347 27900.00000 0 8819965.141 14612656.895 18941884.793 10 0 59347 28800.00000 0 6693694.766 13398994.711 20639583.488 10 0 59347 29700.00000 0 4312539.885 12278464.112 21936137.674 10 0 59347 30600.00000 0 1727989.075 11298302.528 22806582.192 10 0 59347 31500.00000 0 -999855.597 10496263.036 23234249.706 10 0 59347 32400.00000 0 -3804541.820 9899062.144 23211074.847 10 0 59347 33300.00000 0 -6615793.344 9521311.428 22737731.626 10 0 59347 34200.00000 0 -9362194.754 9364975.776 21823603.031 10 0 59347 35100.00000 0 -11973924.222 9419378.854 20486584.763 10 0 59347 36000.00000 0 -14385422.244 9661753.701 18752727.864 10 0 59347 36900.00000 0 -16537887.284 10058313.862 16655727.750 10 0 59347 37800.00000 0 -18381496.728 10565799.118 14236269.727 10 0 59347 38700.00000 0 -19877262.947 11133430.414 11541243.391 10 0 59347 39600.00000 0 -20998449.176 11705191.890 8622840.637 10 0 59347 40500.00000 0 -21731488.053 12222344.492 5537553.960 10 0 59347 41400.00000 0 -22076365.937 12626066.108 2345093.456 10 0 59347 42300.00000 0 -22046457.943 12860107.922 -892757.381 10 0 59347 43200.00000 0 -21667821.185 12873355.871 -4113325.978 10 0 59347 44100.00000 0 -20977975.945 12622189.845 -7254253.073 10 0 59347 45000.00000 0 -20024225.568 12072541.438 -10254690.681 10 0 59347 45900.00000 0 -18861584.968 11201563.316 -13056473.137 10 0 59347 46800.00000 0 -17550403.861 9998839.103 -15605239.149 10 0 59347 47700.00000 0 -16153783.564 8467081.571 -17851483.454 10 0 59347 48600.00000 0 -14734894.925 6622287.906 -19751518.024 10 0 59347 49500.00000 0 -13354309.164 4493343.191 -21268324.282 10 0 59347 50400.00000 0 -12067453.136 2121086.164 -22372279.628 10 0 59347 51300.00000 0 -10922295.575 -443126.435 -23041743.868 10 0 59347 52200.00000 0 -9957361.494 -3139299.674 -23263493.581 10 0 59347 53100.00000 0 -9200158.536 -5901048.308 -23032995.071 10 0 59347 54000.00000 0 -8666082.078 -8658121.072 -22354509.608 10 0 59347 54900.00000 0 -8357845.980 -11339097.700 -21241027.585 10 0 59347 55800.00000 0 -8265463.966 -13874147.102 -19714031.554 10 0 59347 56700.00000 0 -8366783.380 -16197732.025 -17803091.414 10 0 59347 57600.00000 0 -8628549.578 -18251147.143 -15545298.387 10 0 59347 58500.00000 0 -9007956.514 -19984783.814 -12984547.902 10 0 59347 59400.00000 0 -9454618.004 -21360025.952 -10170684.793 10 0 59347 60300.00000 0 -9912875.810 -22350696.665 -7158527.330 10 0 59347 61200.00000 0 -10324345.820 -22943994.165 -4006789.588 10 0 59347 62100.00000 0 -10630593.021 -23140877.299 -776924.069 10 0 59347 63000.00000 0 -10775820.068 -22955884.545 2468091.595 10 0 59347 63900.00000 0 -10709453.591 -22416394.777 5664998.441 10 0 59347 64800.00000 0 -10388516.668 -21561362.164 8751504.543 10 0 59347 65700.00000 0 -9779685.292 -20439580.210 11667511.896 10 0 59347 66600.00000 0 -8860940.466 -19107550.061 14356296.375 10 0 59347 67500.00000 0 -7622745.229 -17627044.959 16765616.739 10 0 59347 68400.00000 0 -6068696.518 -16062475.262 18848730.543 10 0 59347 69300.00000 0 -4215624.476 -14478166.398 20565297.119 10 0 59347 70200.00000 0 -2093135.402 -12935665.073 21882150.669 10 0 59347 71100.00000 0 257382.015 -11491187.023 22773929.506 10 0 59347 72000.00000 0 2784244.927 -10193312.893 23223550.599 10 0 59347 72900.00000 0 5427396.548 -9081027.557 23222521.880 10 0 59347 73800.00000 0 8120678.200 -8182183.211 22771087.967 10 0 59347 74700.00000 0 10794358.826 -7512448.437 21878208.025 10 0 59347 75600.00000 0 13377817.551 -7074784.868 20561367.584 10 0 59347 76500.00000 0 15802268.973 -6859471.092 18846228.915 10 0 59347 77400.00000 0 18003419.386 -6844670.777 16766127.361 10 0 59347 78300.00000 0 19923945.359 -6997519.592 14361423.566 10 0 59347 79200.00000 0 21515693.484 -7275684.224 11678723.903 10 0 59347 80100.00000 0 22741511.574 -7629327.498 8769983.738 10 0 59347 81000.00000 0 23576636.692 -8003396.934 5691510.119 10 0 59347 81900.00000 0 24009583.587 -8340140.788 2502882.247 10 0 59347 82800.00000 0 24042497.348 -8581746.300 -734190.267 10 0 59347 83700.00000 0 23690956.197 -8672989.643 -3957050.269 10 0 59347 84600.00000 0 22983232.784 -8563786.522 -7103295.110 10 0 59347 85500.00000 0 21959044.634 -8211536.297 -10111975.317 10 0 59348 0.00000 0 20667845.516 -7583160.871 -12924767.420 10 0 59348 900.00000 0 19166728.331 -6656751.445 -15487099.105 10 0 59348 1800.00000 0 17518026.565 -5422754.230 -17749204.479 10 0 59348 2700.00000 0 15786713.671 -3884641.290 -19667090.335 10 0 59348 3600.00000 0 14037708.202 -2059038.618 -21203394.082 10 0 59348 4500.00000 0 12333197.054 24697.947 -22328116.754 10 0 59348 5400.00000 0 10730088.190 2325443.258 -23019216.584 10 0 59348 6300.00000 0 9277699.338 4791762.712 -23263051.024 10 0 59348 7200.00000 0 8015779.570 7363812.946 -23054657.747 10 0 59348 8100.00000 0 6972947.030 9975606.379 -22397868.150 10 0 59348 9000.00000 0 6165608.863 12557547.011 -21305249.879 10 0 59348 9900.00000 0 5597409.486 15039132.838 -19797878.153 10 0 59348 10800.00000 0 5259231.044 17351712.759 -17904939.006 10 0 59348 11700.00000 0 5129746.655 19431182.865 -15663170.903 10 0 59348 12600.00000 0 5176503.497 21220508.801 -13116154.719 10 0 59348 13500.00000 0 5357489.973 22671967.747 -10313465.299 10 0 59348 14400.00000 0 5623120.237 23749015.004 -7309700.991 10 0 59348 15300.00000 0 5918551.164 24427695.727 -4163410.540 10 0 59348 16200.00000 0 6186232.210 24697541.713 -935939.107 10 0 59348 17100.00000 0 6368578.279 24561915.129 2309782.776 10 0 59348 18000.00000 0 6410650.352 24037784.801 5510482.042 10 0 59348 18900.00000 0 6262728.138 23154945.254 8603791.732 10 0 59348 19800.00000 0 5882663.865 21954712.579 11529479.459 10 0 59348 20700.00000 0 5237915.963 20488153.769 14230630.157 10 0 59348 21600.00000 0 4307175.462 18813925.866 16654759.060 10 0 59348 22500.00000 0 3081515.721 16995817.694 18754832.641 10 0 59348 23400.00000 0 1565016.868 15100099.090 20490177.564 10 0 59348 24300.00000 0 -225161.182 13192790.037 21827260.529 10 0 59348 25200.00000 0 -2259259.739 11336964.674 22740324.897 10 0 59348 26100.00000 0 -4495935.621 9590202.939 23211873.074 10 0 59348 27000.00000 0 -6883765.812 8002295.495 23232986.952 10 0 59348 27900.00000 0 -9363179.414 6613296.281 22803481.900 10 0 59348 28800.00000 0 -11868736.318 5452002.004 21931892.859 10 0 59348 29700.00000 0 -14331658.192 4534919.657 20635294.234 10 0 59348 30600.00000 0 -16682507.332 3865762.655 18938958.026 10 0 59348 31500.00000 0 -18853903.079 3435494.311 16875857.498 10 0 59348 32400.00000 0 -20783164.368 3222914.679 14486026.179 10 0 59348 33300.00000 0 -22414770.083 3195764.542 11815784.413 10 0 59348 34200.00000 0 -23702536.410 3312299.153 8916847.975 10 0 59348 35100.00000 0 -24611422.024 3523265.038 5845335.260 10 0 59348 36000.00000 0 -25118887.140 3774196.682 2660691.311 10 0 59348 36900.00000 0 -25215750.596 4007936.743 -575451.384 10 0 59348 37800.00000 0 -24906509.745 4167274.169 -3800454.258 10 0 59348 38700.00000 0 -24209109.875 4197589.603 -6951874.327 10 0 59348 39600.00000 0 -23154172.501 4049397.052 -9968663.562 10 0 59348 40500.00000 0 -21783714.162 3680674.854 -12792343.557 10 0 59348 41400.00000 0 -20149408.384 3058887.499 -15368133.318 10 0 59348 42300.00000 0 -18310462.396 2162612.455 -17646008.682 10 0 59348 43200.00000 0 -16331196.239 982702.317 -19581673.203 10 0 59348 44100.00000 0 -14278424.292 -477068.389 -21137421.764 10 0 59348 45000.00000 0 -12218747.689 -2199901.056 -22282880.044 10 0 59348 45900.00000 0 -10215869.956 -4156422.401 -22995605.205 10 0 59348 46800.00000 0 -8328047.482 -6305669.329 -23261535.564 10 0 59348 47700.00000 0 -6605781.214 -8596570.747 -23075279.656 10 0 59348 48600.00000 0 -5089846.127 -10969866.913 -22440238.059 10 0 59348 49500.00000 0 -3809741.222 -13360388.252 -21368554.332 10 0 59348 50400.00000 0 -2782625.510 -15699599.955 -19880894.689 10 0 59348 51300.00000 0 -2012785.129 -17918306.981 -18006059.347 10 0 59348 52200.00000 0 -1491654.426 -19949406.693 -15780431.869 10 0 59348 53100.00000 0 -1198390.464 -21730573.491 -13247276.285 10 0 59348 54000.00000 0 -1100976.634 -23206762.219 -10455895.087 10 0 59348 54900.00000 0 -1157808.368 -24332424.173 -7460664.324 10 0 59348 55800.00000 0 -1319693.010 -25073341.349 -4319965.050 10 0 59348 56700.00000 0 -1532177.829 -25408000.668 -1095032.786 10 0 59348 57600.00000 0 -1738105.803 -25328449.480 2151251.291 10 0 59348 58500.00000 0 -1880288.827 -24840595.933 5355602.205 10 0 59348 59400.00000 0 -1904182.913 -23963941.709 8455580.120 10 0 59348 60300.00000 0 -1760449.925 -22730759.116 11390820.364 10 0 59348 61200.00000 0 -1407295.583 -21184748.413 14104218.972 10 0 59348 62100.00000 0 -812483.410 -19379233.432 16543049.584 10 0 59348 63000.00000 0 45061.431 -17374973.012 18659989.376 10 0 59348 63900.00000 0 1174126.453 -15237681.795 20414033.917 10 0 59348 64800.00000 0 2570611.673 -13035365.581 21771283.719 10 0 59348 65700.00000 0 4217479.850 -10835583.549 22705588.209 10 0 59348 66600.00000 0 6085258.552 -8702752.023 23199035.932 10 0 59348 67500.00000 0 8133072.433 -6695601.714 23242283.140 10 0 59348 68400.00000 0 10310162.093 -4864893.285 22834716.052 10 0 59348 69300.00000 0 12557825.808 -3251484.642 21984445.225 10 0 59348 70200.00000 0 14811703.311 -1884828.180 20708133.541 10 0 59348 71100.00000 0 17004306.987 -781958.052 19030662.121 10 0 59348 72000.00000 0 19067695.878 52992.835 16984641.333 10 0 59348 72900.00000 0 20936182.366 628728.397 14609776.568 10 0 59348 73800.00000 0 22548960.187 966182.316 11952100.879 10 0 59348 74700.00000 0 23852545.664 1097395.340 9063088.941 10 0 59348 75600.00000 0 24802931.823 1063925.119 5998668.701 10 0 59348 76500.00000 0 25367366.659 914855.895 2818148.963 10 0 59348 77400.00000 0 25525682.215 704491.776 -416917.248 10 0 59348 78300.00000 0 25271119.425 489830.415 -3643912.521 10 0 59348 79200.00000 0 24610614.353 327923.051 -6800356.242 10 0 59348 80100.00000 0 23564533.489 273231.632 -9825104.588 10 0 59348 81000.00000 0 22165868.449 375094.079 -12659526.896 10 0 59348 81900.00000 0 20458922.692 675404.465 -15248636.215 10 0 59348 82800.00000 0 18497543.861 1206606.149 -17542152.557 10 0 59348 83700.00000 0 16342974.236 1990083.224 -19495478.527 10 0 59348 84600.00000 0 14061407.590 3035019.291 -21070568.615 10 0 59348 85500.00000 0 11721353.213 4337773.354 -22236675.081 10 0 59349 0.00000 0 9390915.938 5881801.231 -22970955.736 10 0 59349 900.00000 0 7135104.846 7638128.759 -23258931.246 10 0 59349 1800.00000 0 5013282.129 9566358.411 -23094782.201 10 0 59349 2700.00000 0 3076859.201 11616171.524 -22481479.184 10 0 59349 3600.00000 0 1367335.080 13729263.906 -21430742.114 10 0 59349 4500.00000 0 -85239.544 15841636.584 -19962828.203 10 0 59349 5400.00000 0 -1263308.443 17886146.694 -18106151.407 10 0 59349 6300.00000 0 -2162321.762 19795212.402 -15896739.470 10 0 59349 7200.00000 0 -2790691.948 21503558.323 -13377538.198 10 0 59349 8100.00000 0 -3169195.545 22950885.657 -10597575.913 10 0 59349 9000.00000 0 -3329846.498 24084353.794 -7611004.119 10 0 59349 9900.00000 0 -3314289.260 24860767.638 -4476033.566 10 0 59349 10800.00000 0 -3171780.973 25248377.250 -1253787.205 10 0 59349 11700.00000 0 -2956849.799 25228212.738 1992906.321 10 0 59349 12600.00000 0 -2726730.580 24794897.294 5200753.463 10 0 59349 13500.00000 0 -2538688.672 23956903.745 8307244.918 10 0 59349 14400.00000 0 -2447347.514 22736243.986 11251887.133 10 0 59349 15300.00000 0 -2502135.067 21167605.112 13977390.544 10 0 59349 16200.00000 0 -2744958.812 19296969.780 16430790.341 10 0 59349 17100.00000 0 -3208208.735 17179780.142 18564477.322 10 0 59349 18000.00000 0 -3913173.172 14878723.959 20337118.612 10 0 59349 18900.00000 0 -4868934.391 12461236.927 21714450.871 10 0 59349 19800.00000 0 -6071790.063 9996826.605 22669931.555 10 0 59349 20700.00000 0 -7505224.221 7554330.159 23185236.898 10 0 59349 21600.00000 0 -9140428.208 5199220.006 23250598.578 10 0 59349 22500.00000 0 -10937349.035 2991068.635 22864974.211 10 0 59349 23400.00000 0 -12846220.777 981276.644 22036049.955 10 0 59349 24300.00000 0 -14809514.794 -788843.614 20780076.560 10 0 59349 25200.00000 0 -16764227.555 -2289551.493 19121543.071 10 0 59349 26100.00000 0 -18644411.116 -3503669.438 17092695.200 10 0 59349 27000.00000 0 -20383841.592 -4427043.600 14732907.916 10 0 59349 27900.00000 0 -21918715.472 -5068456.847 12087924.271 10 0 59349 28800.00000 0 -23190262.458 -5448999.730 9208974.773 10 0 59349 29700.00000 0 -24147167.083 -5600927.282 6151793.619 10 0 59349 30600.00000 0 -24747699.020 -5566050.509 2975549.923 10 0 59349 31500.00000 0 -24961463.927 -5393730.558 -258286.256 10 0 59349 32400.00000 0 -24770702.113 -5138559.891 -3487122.152 10 0 59349 33300.00000 0 -24171080.763 -4857827.761 -6648442.944 10 0 59349 34200.00000 0 -23171946.228 -4608876.250 -9681012.328 10 0 59349 35100.00000 0 -21796025.027 -4446457.807 -12526050.528 10 0 59349 36000.00000 0 -20078584.893 -4420205.341 -15128367.590 10 0 59349 36900.00000 0 -18066089.503 -4572321.452 -17437430.329 10 0 59349 37800.00000 0 -15814401.469 -4935584.512 -19408342.673 10 0 59349 38700.00000 0 -13386606.874 -5531756.441 -21002720.493 10 0 59349 39600.00000 0 -10850550.559 -6370460.468 -22189443.855 10 0 59349 40500.00000 0 -8276183.401 -7448577.871 -22945271.840 10 0 59349 41400.00000 0 -5732830.941 -8750191.263 -23255307.440 10 0 59349 42300.00000 0 -3286496.350 -10247079.125 -23113302.684 10 0 59349 43200.00000 0 -997309.570 -11899743.357 -22521797.044 10 0 59349 44100.00000 0 1082771.195 -13658929.070 -21492085.182 10 0 59349 45000.00000 0 2911909.537 -15467574.837 -20044013.331 10 0 59349 45900.00000 0 4459910.717 -17263113.124 -18205606.896 10 0 59349 46800.00000 0 5709247.369 -18980025.268 -16012535.290 10 0 59349 47700.00000 0 6655547.680 -20552543.897 -13507423.434 10 0 59349 48600.00000 0 7307525.453 -21917388.820 -10739022.702 10 0 59349 49500.00000 0 7686355.264 -23016420.371 -7761257.259 10 0 59349 50400.00000 0 7824519.615 -23799097.081 -4632164.747 10 0 59349 51300.00000 0 7764177.933 -24224632.625 -1412752.797 10 0 59349 52200.00000 0 7555127.907 -24263759.581 1834205.141 10 0 59349 53100.00000 0 7252447.360 -23900024.350 5045409.475 10 0 59349 54000.00000 0 6913918.660 -23130557.767 8158283.816 10 0 59349 54900.00000 0 6597347.018 -21966288.589 11112207.921 10 0 59349 55800.00000 0 6357888.249 -20431591.068 13849708.612 10 0 59349 56700.00000 0 6245500.945 -18563382.170 16317584.377 10 0 59349 57600.00000 0 6302632.023 -16409707.420 18467941.106 10 0 59349 58500.00000 0 6562234.236 -14027876.014 20259118.642 10 0 59349 59400.00000 0 7046199.411 -11482224.531 21656490.619 10 0 59349 60300.00000 0 7764273.129 -8841603.696 22633123.008 10 0 59349 61200.00000 0 8713495.752 -6176693.737 23170279.871 10 0 59349 62100.00000 0 9878192.351 -3557260.201 23257768.127 10 0 59349 63000.00000 0 11230510.958 -1049463.764 22894116.324 10 0 59349 63900.00000 0 12731485.694 1286665.245 22086585.501 10 0 59349 64800.00000 0 14332579.717 3399484.526 20851013.363 10 0 59349 65700.00000 0 15977643.186 5247638.131 19211495.813 10 0 59349 66600.00000 0 17605204.563 6801518.959 17199912.693 10 0 59349 67500.00000 0 19151000.027 8044237.204 14855307.235 10 0 59349 68400.00000 0 20550636.172 8972056.924 12223131.040 10 0 59349 69300.00000 0 21742275.702 9594284.641 9354368.867 10 0 59349 70200.00000 0 22669234.983 9932616.479 6304559.429 10 0 59349 71100.00000 0 23282385.833 10019972.442 3132730.257 10 0 59349 72000.00000 0 23542261.890 9898867.461 -99733.607 10 0 59349 72900.00000 0 23420781.899 9619387.889 -3330266.217 10 0 59349 73800.00000 0 22902517.905 9236858.427 -6496320.804 10 0 59349 74700.00000 0 21985454.896 8809297.224 -9536570.847 10 0 59349 75600.00000 0 20681209.335 8394765.804 -12392089.699 10 0 59349 76500.00000 0 19014696.178 8048724.964 -15007486.529 10 0 59349 77400.00000 0 17023256.783 7821507.684 -17331976.983 10 0 59349 78300.00000 0 14755282.306 7756015.495 -19320368.196 10 0 59349 79200.00000 0 12268388.085 7885735.685 -20933939.193 10 0 59349 80100.00000 0 9627213.256 8233163.607 -22141199.497 10 0 59349 81000.00000 0 6900935.490 8808697.766 -22918510.983 10 0 59349 81900.00000 0 4160602.746 9610055.839 -23250560.348 10 0 59349 82800.00000 0 1476391.986 10622238.169 -23130672.230 10 0 59349 83700.00000 0 -1085091.888 11818042.437 -22560955.863 10 0 59349 84600.00000 0 -3463364.880 13159110.114 -21552281.197 10 0 59349 85500.00000 0 -5606354.259 14597462.647 -20124083.609 99